WB5CFT Weather Reports


time (UTC)temp
F
wind
direction
speed
knots
gust
knots
rain 1hr
in
rain 24hr
in
rain mn
in
humidity
%
barometer
mb
20260510154234 71 352 7.8 13.0 0.00 0.00 0.00 48 1018.4
20260510153729 71 313 10.4 13.0 0.00 0.00 0.00 48 1018.5
20260510153225 71 337 13.0 20.9 0.00 0.00 0.00 48 1018.6
20260510152722 71 350 11.3 16.5 0.00 0.00 0.00 48 1018.5
20260510152218 70 324 5.2 9.6 0.00 0.00 0.00 48 1018.3
20260510151715 71 299 6.1 8.7 0.00 0.00 0.00 48 1018.3
20260510151214 71 343 7.0 13.0 0.00 0.00 0.00 48 1017.9
20260510150708 71 343 7.0 13.0 0.00 0.00 0.00 48 1017.9
20260510150204 71 31 11.3 18.2 0.00 0.00 0.00 48 1017.5
20260510145701 72 323 10.4 16.5 0.00 0.00 0.00 48 1017.4
20260510145157 72 0 5.2 12.2 0.00 0.00 0.00 48 1016.9
20260510144654 71 288 14.8 19.1 0.00 0.00 0.00 47 1016.8
20260510144150 72 311 9.6 19.1 0.00 0.00 0.00 47 1016.7
20260510143645 73 12 7.0 13.0 0.00 0.00 0.00 48 1016.1
20260510143142 73 359 7.0 9.6 0.00 0.00 0.00 52 1015.8
20260510142639 73 2 11.3 15.6 0.00 0.00 0.00 52 1015.8
20260510142135 73 315 0.9 3.5 0.00 0.00 0.00 50 1015.6
20260510141632 73 354 4.3 7.8 0.00 0.00 0.00 47 1015.1
20260510141131 73 341 6.1 8.7 0.00 0.00 0.00 44 1015.0
20260510140626 73 27 1.7 6.1 0.00 0.00 0.00 43 1015.2
20260510140126 73 6 5.2 11.3 0.00 0.00 0.00 40 1015.5
20260510135621 72 337 8.7 9.6 0.00 0.00 0.00 37 1014.9
20260510135118 72 305 10.4 12.2 0.00 0.00 0.00 36 1014.9
20260510134615 71 342 3.5 5.2 0.00 0.00 0.00 36 1014.8
20260510134112 71 294 7.8 9.6 0.00 0.00 0.00 35 1014.7
20260510133608 71 306 9.6 11.3 0.00 0.00 0.00 35 1014.5
20260510133104 70 297 5.2 7.8 0.00 0.00 0.00 35 1013.9
20260510132601 70 342 4.3 7.0 0.00 0.00 0.00 35 1014.0
20260510132058 68 312 2.6 3.5 0.00 0.00 0.00 37 1013.8
20260510131555 68 308 3.5 7.8 0.00 0.00 0.00 37 1013.6
20260510131052 68 299 4.3 6.1 0.00 0.00 0.00 37 1013.4
20260510130549 66 306 3.5 6.1 0.00 0.00 0.00 39 1013.4
20260510130046 65 329 1.7 1.7 0.00 0.00 0.00 40 1013.2
20260510125542 65 334 1.7 5.2 0.00 0.00 0.00 40 1012.9
20260510125039 64 320 0.0 0.0 0.00 0.00 0.00 41 1012.5
20260510124536 64 292 0.0 0.0 0.00 0.00 0.00 41 1012.4
20260510124033 64 275 0.9 0.9 0.00 0.00 0.00 40 1012.3
20260510123533 63 269 0.0 0.0 0.00 0.00 0.00 42 1012.6
20260510123029 63 267 0.9 1.7 0.00 0.00 0.00 42 1012.6
20260510122525 62 261 0.0 0.9 0.00 0.00 0.00 42 1012.5
20260510122021 62 257 0.0 0.0 0.00 0.00 0.00 44 1012.5
20260510121518 62 256 0.0 0.0 0.00 0.00 0.00 46 1012.2
20260510121016 61 256 0.0 0.0 0.00 0.00 0.00 47 1012.3
20260510120513 62 256 0.0 0.0 0.00 0.00 0.00 47 1012.3
20260510120009 62 255 0.0 0.9 0.00 0.00 0.00 46 1012.1
20260510115506 63 252 0.0 0.0 0.00 0.00 0.00 45 1012.1
20260510115001 63 252 0.0 0.0 0.00 0.00 0.00 43 1011.5
20260510114458 63 252 0.0 0.0 0.00 0.00 0.00 44 1011.5
20260510113954 63 252 0.0 0.0 0.00 0.00 0.00 44 1011.6
20260510113449 64 252 0.0 0.0 0.00 0.00 0.00 44 1011.4
20260510112948 64 252 0.0 0.0 0.00 0.00 0.00 43 1011.5
20260510112444 64 252 0.0 0.0 0.00 0.00 0.00 40 1011.6
20260510111941 64 252 0.0 0.0 0.00 0.00 0.00 42 1011.4
20260510111437 64 252 0.0 0.0 0.00 0.00 0.00 42 1011.4
20260510110933 64 252 0.0 0.0 0.00 0.00 0.00 44 1011.2
20260510110429 65 251 0.0 0.0 0.00 0.00 0.00 42 1011.1
20260510105926 66 249 0.0 0.0 0.00 0.00 0.00 40 1011.0
20260510105421 65 249 0.0 0.0 0.00 0.00 0.00 40 1010.9
20260510104916 65 251 0.0 0.0 0.00 0.00 0.00 41 1010.9
20260510104413 66 252 0.0 0.0 0.00 0.00 0.00 39 1010.7
20260510103910 66 252 0.0 0.0 0.00 0.00 0.00 37 1010.9
20260510103407 66 252 0.0 0.0 0.00 0.00 0.00 37 1010.9
20260510102902 67 252 0.0 0.0 0.00 0.00 0.00 37 1010.9
20260510102358 67 252 0.0 0.0 0.00 0.00 0.00 36 1010.9
20260510101856 67 252 0.0 0.0 0.00 0.00 0.00 36 1010.5
20260510101354 67 252 0.0 0.0 0.00 0.00 0.00 35 1010.4
20260510100850 67 252 0.0 0.0 0.00 0.00 0.00 35 1010.4
20260510100348 68 252 0.0 0.0 0.00 0.00 0.00 35 1010.2
20260510095844 68 252 0.0 0.0 0.00 0.00 0.00 34 1010.3
20260510095338 68 252 0.0 0.0 0.00 0.00 0.00 35 1010.2
20260510094832 68 252 0.0 0.0 0.00 0.00 0.00 34 1010.2
20260510094327 69 303 0.0 0.0 0.00 0.00 0.00 33 1010.3
20260510093819 68 326 0.0 0.0 0.00 0.00 0.00 33 1010.3
20260510093315 68 329 0.0 0.0 0.00 0.00 0.00 34 1010.4
20260510092811 69 331 0.0 0.0 0.00 0.00 0.00 32 1010.6
20260510092307 69 331 0.0 0.0 0.00 0.00 0.00 32 1010.3
20260510091803 69 331 0.0 0.0 0.00 0.00 0.00 31 1010.5
20260510091301 68 331 0.0 0.0 0.00 0.00 0.00 32 1010.4
20260510090757 68 335 0.0 0.0 0.00 0.00 0.00 32 1010.5
20260510090254 68 334 0.0 0.0 0.00 0.00 0.00 32 1010.2
20260510085750 68 333 0.0 0.0 0.00 0.00 0.00 32 1010.4
20260510085244 68 333 0.0 0.0 0.00 0.00 0.00 31 1010.1
20260510084740 68 332 0.0 0.0 0.00 0.00 0.00 32 1010.4
20260510084237 67 332 0.0 0.0 0.00 0.00 0.00 33 1010.3
20260510083734 67 330 0.0 0.0 0.00 0.00 0.00 34 1010.4
20260510083231 67 330 0.0 0.0 0.00 0.00 0.00 34 1010.4
20260510082726 67 327 0.0 0.0 0.00 0.00 0.00 35 1010.5
20260510082223 67 327 0.0 0.0 0.00 0.00 0.00 35 1010.4
20260510081722 68 321 2.6 2.6 0.00 0.00 0.00 36 1010.5
20260510081218 69 117 0.0 0.0 0.00 0.00 0.00 32 1010.4
20260510080713 69 115 0.0 0.0 0.00 0.00 0.00 34 1010.5
20260510080209 69 117 0.0 0.0 0.00 0.00 0.00 31 1010.4
20260510075706 71 122 0.0 0.0 0.00 0.00 0.00 29 1010.4
20260510075204 71 145 0.0 0.0 0.00 0.00 0.00 30 1010.2
20260510074701 71 145 0.0 0.0 0.00 0.00 0.00 30 1010.3
20260510074157 71 155 0.0 0.0 0.00 0.00 0.00 28 1010.5
20260510073654 72 154 0.0 0.0 0.00 0.00 0.00 29 1010.3
20260510073150 71 164 0.0 0.0 0.00 0.00 0.00 27 1010.3
20260510072646 71 164 0.0 0.0 0.00 0.00 0.00 27 1010.3
20260510072143 72 164 0.0 0.0 0.00 0.00 0.00 27 1010.5
20260510071639 72 169 0.0 0.0 0.00 0.00 0.00 26 1010.3
20260510071136 73 166 0.0 0.0 0.00 0.00 0.00 27 1010.3
20260510070633 73 170 0.0 0.0 0.00 0.00 0.00 26 1010.3
20260510070131 73 179 0.0 0.0 0.00 0.00 0.00 25 1010.3
20260510065626 73 180 0.0 0.0 0.00 0.00 0.00 25 1010.4
20260510065123 73 190 0.0 0.0 0.00 0.00 0.00 26 1010.3
20260510064619 74 170 0.0 0.0 0.00 0.00 0.00 26 1010.3
20260510064116 74 160 0.0 0.0 0.00 0.00 0.00 25 1010.3
20260510063613 74 186 0.0 0.0 0.00 0.00 0.00 25 1010.4
20260510063110 74 187 0.0 0.0 0.00 0.00 0.00 25 1010.3
20260510062605 75 199 0.0 0.0 0.00 0.00 0.00 25 1010.4
20260510062100 75 205 0.0 0.0 0.00 0.00 0.00 25 1010.4
20260510061551 76 156 0.0 0.0 0.00 0.00 0.00 25 1010.4
20260510061048 76 164 1.7 1.7 0.00 0.00 0.00 24 1010.4
20260510060544 77 166 0.0 0.0 0.00 0.00 0.00 24 1010.4
20260510060040 77 173 0.0 0.0 0.00 0.00 0.00 24 1010.4
20260510055537 77 167 0.0 0.0 0.00 0.00 0.00 24 1010.5
20260510055035 78 157 0.0 0.0 0.00 0.00 0.00 23 1010.4
20260510054530 77 154 0.0 0.0 0.00 0.00 0.00 23 1010.4
20260510054025 77 148 0.0 0.0 0.00 0.00 0.00 25 1010.5
20260510053521 77 147 0.0 0.0 0.00 0.00 0.00 25 1010.4
20260510053018 78 147 0.0 0.0 0.00 0.00 0.00 24 1010.2
20260510052514 77 146 0.0 0.0 0.00 0.00 0.00 24 1010.2
20260510052010 77 169 2.6 2.6 0.00 0.00 0.00 24 1010.5
20260510051505 78 184 0.0 0.0 0.00 0.00 0.00 23 1010.5
20260510051002 78 156 0.0 0.0 0.00 0.00 0.00 24 1010.5
20260510050459 79 161 0.0 0.0 0.00 0.00 0.00 22 1010.4
20260510045956 78 182 0.9 1.7 0.00 0.00 0.00 23 1010.3
20260510045454 78 172 3.5 3.5 0.00 0.00 0.00 23 1010.4
20260510044950 78 166 1.7 2.6 0.00 0.00 0.00 23 1010.4
20260510044447 78 160 1.7 2.6 0.00 0.00 0.00 23 1010.4
20260510043944 78 142 0.9 1.7 0.00 0.00 0.00 23 1010.5
20260510043439 77 149 3.5 3.5 0.00 0.00 0.00 23 1010.5
20260510042938 76 162 0.0 0.0 0.00 0.00 0.00 25 1010.5
20260510042434 75 165 0.0 0.9 0.00 0.00 0.00 27 1010.3
20260510041929 75 166 0.0 0.0 0.00 0.00 0.00 29 1010.4
20260510041427 75 166 0.0 0.0 0.00 0.00 0.00 30 1010.4
20260510040925 76 166 0.0 0.0 0.00 0.00 0.00 31 1010.4
20260510040422 78 196 0.0 0.0 0.00 0.00 0.00 27 1010.3
20260510035917 79 196 0.0 0.0 0.00 0.00 0.00 25 1010.1
20260510035414 80 196 0.0 0.0 0.00 0.00 0.00 24 1010.1
20260510034914 80 196 0.0 0.0 0.00 0.00 0.00 23 1010.2
20260510034413 80 196 0.0 0.0 0.00 0.00 0.00 22 1010.3
20260510033908 81 197 0.0 0.0 0.00 0.00 0.00 21 1010.1
20260510033405 81 197 0.0 0.0 0.00 0.00 0.00 21 1010.1
20260510032902 82 197 0.0 0.0 0.00 0.00 0.00 21 1009.9
20260510032358 82 197 0.0 0.0 0.00 0.00 0.00 21 1010.0
20260510031854 81 195 0.0 0.0 0.00 0.00 0.00 21 1009.9
20260510031349 81 195 0.0 0.0 0.00 0.00 0.00 21 1009.8
20260510030849 82 195 0.0 0.0 0.00 0.00 0.00 21 1009.9
20260510030346 83 195 0.0 0.0 0.00 0.00 0.00 20 1009.8
20260510025844 83 197 0.0 0.0 0.00 0.00 0.00 20 1009.8
20260510025341 84 212 0.0 0.0 0.00 0.00 0.00 20 1009.3
20260510024838 84 213 0.0 0.0 0.00 0.00 0.00 19 1009.4
20260510024334 84 198 0.0 0.0 0.00 0.00 0.00 19 1009.5
20260510023831 84 201 0.0 0.0 0.00 0.00 0.00 19 1009.3
20260510023327 85 196 0.0 0.0 0.00 0.00 0.00 19 1009.3
20260510022824 86 205 0.0 0.0 0.00 0.00 0.00 19 1009.4
20260510022323 86 201 0.0 0.0 0.00 0.00 0.00 18 1009.3
20260510021823 87 194 0.0 0.0 0.00 0.00 0.00 18 1009.1
20260510021321 88 193 0.0 0.0 0.00 0.00 0.00 17 1009.1
20260510020817 88 191 0.0 0.0 0.00 0.00 0.00 17 1008.9
20260510020312 89 189 0.0 0.0 0.00 0.00 0.00 17 1008.9
20260510015808 89 188 0.0 0.9 0.00 0.00 0.00 17 1008.7
20260510015306 89 187 0.9 1.7 0.00 0.00 0.00 16 1008.7
20260510014759 90 195 1.7 5.2 0.00 0.00 0.00 16 1008.9
20260510014256 90 197 0.0 0.0 0.00 0.00 0.00 16 1008.7
20260510013753 91 197 0.0 0.0 0.00 0.00 0.00 16 1008.5
20260510013248 91 185 0.0 0.9 0.00 0.00 0.00 15 1008.7
20260510012749 92 179 0.0 0.9 0.00 0.00 0.00 15 1008.4
20260510012243 92 181 0.0 0.0 0.00 0.00 0.00 15 1008.5
20260510011738 92 182 0.0 0.0 0.00 0.00 0.00 15 1008.4
20260510011233 93 182 0.0 0.9 0.00 0.00 0.00 15 1008.7
20260510010731 93 184 0.9 1.7 0.00 0.00 0.00 14 1008.5
20260510010227 93 202 0.9 1.7 0.00 0.00 0.00 15 1008.4
20260510005724 93 214 0.0 0.9 0.00 0.00 0.00 15 1008.8
20260510005221 94 208 0.9 0.9 0.00 0.00 0.00 15 1008.5
20260510004719 94 222 0.0 0.0 0.00 0.00 0.00 15 1008.5
20260510004216 94 231 0.0 0.0 0.00 0.00 0.00 16 1008.3
20260510003714 94 216 0.0 0.0 0.00 0.00 0.00 14 1008.5
20260510003209 95 224 0.0 0.0 0.00 0.00 0.00 15 1008.5
20260510002708 95 228 0.9 1.7 0.00 0.00 0.00 15 1008.7
20260510002206 95 270 3.5 6.1 0.00 0.00 0.00 14 1008.5
20260510001703 94 222 0.0 0.0 0.00 0.00 0.00 14 1008.7
20260510001202 95 205 0.0 0.9 0.00 0.00 0.00 15 1008.7
20260510000702 95 303 4.3 5.2 0.00 0.00 0.00 14 1008.7
20260510000159 95 235 2.6 5.2 0.00 0.00 0.00 14 1008.7
20260509235656 95 217 3.5 5.2 0.00 0.00 0.00 14 1008.7
20260509235152 95 257 0.0 0.0 0.00 0.00 0.00 16 1008.5
20260509234648 95 240 4.3 6.1 0.00 0.00 0.00 14 1008.7
20260509234146 95 218 1.7 5.2 0.00 0.00 0.00 15 1008.8
20260509233644 95 150 2.6 3.5 0.00 0.00 0.00 14 1008.8
20260509233141 96 220 0.9 1.7 0.00 0.00 0.00 15 1008.9
20260509232637 95 252 0.0 0.9 0.00 0.00 0.00 15 1008.9
20260509232134 95 224 4.3 6.1 0.00 0.00 0.00 15 1008.9
20260509231630 95 191 0.9 1.7 0.00 0.00 0.00 15 1009.0
20260509231128 95 193 3.5 5.2 0.00 0.00 0.00 14 1009.1
20260509230625 95 214 0.9 2.6 0.00 0.00 0.00 15 1009.0
20260509230122 94 178 0.9 0.9 0.00 0.00 0.00 15 1009.1
20260509225618 94 268 0.0 0.9 0.00 0.00 0.00 15 1009.2
20260509225113 95 199 7.0 9.6 0.00 0.00 0.00 15 1009.3
20260509224608 93 191 0.0 1.7 0.00 0.00 0.00 16 1009.2
20260509224106 93 173 1.7 3.5 0.00 0.00 0.00 15 1009.2
20260509223603 94 200 0.9 1.7 0.00 0.00 0.00 16 1009.3
20260509223100 95 235 3.5 7.0 0.00 0.00 0.00 15 1009.4
20260509222556 95 180 0.9 0.9 0.00 0.00 0.00 16 1009.2
20260509222052 93 225 1.7 2.6 0.00 0.00 0.00 15 1009.3
20260509221548 93 171 3.5 3.5 0.00 0.00 0.00 15 1009.4
20260509221044 94 181 3.5 3.5 0.00 0.00 0.00 15 1009.6
20260509220540 95 176 0.0 0.0 0.00 0.00 0.00 16 1009.5
20260509220037 94 164 0.0 0.0 0.00 0.00 0.00 15 1009.9
20260509215532 94 167 0.0 0.0 0.00 0.00 0.00 16 1009.6
20260509215030 93 170 4.3 5.2 0.00 0.00 0.00 15 1009.9
20260509214527 93 225 0.0 0.0 0.00 0.00 0.00 16 1009.6
20260509214023 94 215 0.0 0.0 0.00 0.00 0.00 16 1009.9
20260509213519 95 219 0.0 0.9 0.00 0.00 0.00 16 1009.9
20260509213017 96 264 0.0 0.0 0.00 0.00 0.00 16 1010.2
20260509212514 95 262 0.0 0.0 0.00 0.00 0.00 17 1010.3
20260509212011 94 162 0.0 0.0 0.00 0.00 0.00 15 1010.3
20260509211506 94 186 0.9 1.7 0.00 0.00 0.00 17 1010.6
20260509211003 93 208 3.5 5.2 0.00 0.00 0.00 16 1010.5
20260509210500 93 167 0.0 0.0 0.00 0.00 0.00 17 1010.4
20260509205956 93 175 6.1 7.0 0.00 0.00 0.00 15 1010.5
20260509205451 93 173 0.0 1.7 0.00 0.00 0.00 16 1010.7
20260509204946 93 140 0.9 1.7 0.00 0.00 0.00 15 1010.9
20260509204443 93 142 6.1 7.8 0.00 0.00 0.00 15 1010.9
20260509203939 93 197 1.7 5.2 0.00 0.00 0.00 16 1010.9
20260509203435 94 115 5.2 6.1 0.00 0.00 0.00 15 1011.1
20260509202933 95 148 5.2 7.0 0.00 0.00 0.00 15 1011.1
20260509202429 94 157 4.3 7.0 0.00 0.00 0.00 15 1011.2
20260509201924 95 162 7.0 9.6 0.00 0.00 0.00 16 1011.3
20260509201419 94 128 5.2 7.0 0.00 0.00 0.00 16 1011.3
20260509200916 94 191 2.6 5.2 0.00 0.00 0.00 16 1011.5
20260509200416 94 202 0.9 2.6 0.00 0.00 0.00 16 1011.4
20260509195913 93 259 0.9 1.7 0.00 0.00 0.00 17 1011.4
20260509195409 93 217 3.5 5.2 0.00 0.00 0.00 16 1011.6
20260509194908 93 224 6.1 8.7 0.00 0.00 0.00 17 1011.7
20260509194405 93 162 3.5 3.5 0.00 0.00 0.00 17 1011.5
20260509193901 93 155 0.9 1.7 0.00 0.00 0.00 17 1011.6
20260509193401 93 165 9.6 11.3 0.00 0.00 0.00 17 1011.8
20260509192857 92 173 2.6 2.6 0.00 0.00 0.00 17 1011.7
20260509192354 93 158 5.2 8.7 0.00 0.00 0.00 17 1011.8
20260509191849 92 169 6.1 8.7 0.00 0.00 0.00 17 1012.2
20260509191345 92 159 5.2 8.7 0.00 0.00 0.00 18 1012.3
20260509190841 92 210 5.2 6.1 0.00 0.00 0.00 17 1012.1
20260509190338 92 172 9.6 11.3 0.00 0.00 0.00 17 1012.2
20260509185835 92 166 1.7 2.6 0.00 0.00 0.00 17 1012.3
20260509185332 92 204 4.3 5.2 0.00 0.00 0.00 18 1012.5
20260509184830 91 142 7.8 11.3 0.00 0.00 0.00 18 1012.3
20260509184327 91 168 12.2 14.8 0.00 0.00 0.00 18 1012.5
20260509183823 90 161 3.5 3.5 0.00 0.00 0.00 19 1012.5
20260509183318 91 180 3.5 5.2 0.00 0.00 0.00 18 1012.7
20260509182814 90 188 7.0 12.2 0.00 0.00 0.00 18 1012.8
20260509182312 90 212 8.7 11.3 0.00 0.00 0.00 18 1012.9
20260509181809 90 144 3.5 5.2 0.00 0.00 0.00 18 1012.9
20260509181306 90 164 5.2 7.0 0.00 0.00 0.00 19 1012.8
20260509180804 90 171 7.8 9.6 0.00 0.00 0.00 19 1013.0
20260509180259 89 142 5.2 7.0 0.00 0.00 0.00 19 1013.0
20260509175756 88 167 0.9 2.6 0.00 0.00 0.00 20 1013.2
20260509175252 88 210 7.8 12.2 0.00 0.00 0.00 20 1013.3
20260509174748 88 213 4.3 6.1 0.00 0.00 0.00 20 1013.4
20260509174244 87 142 5.2 7.0 0.00 0.00 0.00 20 1013.7
20260509173740 88 155 10.4 12.2 0.00 0.00 0.00 20 1013.7
20260509173236 87 229 6.1 8.7 0.00 0.00 0.00 21 1013.7
20260509172732 87 198 3.5 5.2 0.00 0.00 0.00 22 1013.6
20260509172229 85 149 1.7 2.6 0.00 0.00 0.00 23 1013.8
20260509171724 85 192 1.7 3.5 0.00 0.00 0.00 23 1013.8
20260509171221 85 201 6.1 8.7 0.00 0.00 0.00 23 1013.7
20260509170718 84 117 0.0 0.9 0.00 0.00 0.00 26 1013.7
20260509170214 83 149 1.7 2.6 0.00 0.00 0.00 25 1013.9
20260509165712 83 177 1.7 3.5 0.00 0.00 0.00 26 1014.3
20260509165207 82 138 2.6 3.5 0.00 0.00 0.00 27 1014.0
20260509164704 82 167 7.0 8.7 0.00 0.00 0.00 26 1014.3
20260509164159 81 188 6.1 7.8 0.00 0.00 0.00 27 1014.5
20260509163657 81 164 1.7 1.7 0.00 0.00 0.00 29 1014.4
20260509163153 80 156 3.5 3.5 0.00 0.00 0.00 29 1014.6
20260509162651 80 150 3.5 5.2 0.00 0.00 0.00 29 1014.5
20260509162146 80 150 3.5 6.1 0.00 0.00 0.00 30 1014.6
20260509161642 79 146 2.6 2.6 0.00 0.00 0.00 31 1014.6
20260509161138 78 179 4.3 5.2 0.00 0.00 0.00 32 1014.6
20260509160634 77 154 3.5 5.2 0.00 0.00 0.00 32 1014.5
20260509160129 77 183 2.6 5.2 0.00 0.00 0.00 33 1014.5
20260509155626 77 184 3.5 6.1 0.00 0.00 0.00 32 1014.6
20260509155122 77 150 5.2 6.1 0.00 0.00 0.00 33 1014.7